Time,TemperatureF,DewpointF,PressureIn,WindDirection,WindDirectionDegrees,WindSpeedMPH,WindSpeedGustMPH,Humidity,HourlyPrecipIn,Conditions,Clouds,dailyrainin,SolarRadiationWatts/m^2,SoftwareType,DateUTC
2013-04-06 00:04:00,43.0,38.0,-100.00,SSE,155,0.0,0.0,84,0.00,,,0.00,0.000000,,2013-04-06 04:04:00,
2013-04-06 00:33:00,41.0,38.0,-100.00,SE,137,0.0,0.0,89,0.00,,,0.00,0.000000,,2013-04-06 04:33:00,
2013-04-06 00:43:00,41.0,38.0,-100.00,SE,137,0.0,0.0,89,0.00,,,0.00,0.000000,,2013-04-06 04:43:00,
2013-04-06 00:53:00,41.0,38.0,-100.00,SE,137,0.0,0.0,89,0.00,,,0.00,0.000000,,2013-04-06 04:53:00,
2013-04-06 01:02:00,41.0,38.0,-100.00,SE,137,0.0,0.0,89,0.00,,,0.00,0.000000,,2013-04-06 05:02:00,
2013-04-06 01:43:00,39.0,36.0,-100.00,South,175,1.0,3.0,90,0.00,,,0.00,0.000000,,2013-04-06 05:43:00,
2013-04-06 01:52:00,39.0,36.0,-100.00,South,175,1.0,3.0,90,0.00,,,0.00,0.000000,,2013-04-06 05:52:00,
2013-04-06 02:03:00,39.0,36.0,-100.00,South,175,1.0,3.0,90,0.00,,,0.00,0.000000,,2013-04-06 06:03:00,
2013-04-06 02:33:00,38.0,36.0,-100.00,SSE,155,0.0,0.0,93,0.00,,,-99.99,0.000000,,2013-04-06 06:33:00,
2013-04-06 02:43:00,38.0,36.0,-100.00,SSE,155,0.0,0.0,93,0.00,,,-99.99,0.000000,,2013-04-06 06:43:00,
2013-04-06 02:53:00,38.0,36.0,-100.00,SSE,155,0.0,0.0,93,0.00,,,-99.99,0.000000,,2013-04-06 06:53:00,
2013-04-06 03:04:00,38.0,36.0,-100.00,SSE,155,0.0,0.0,93,0.00,,,-99.99,0.000000,,2013-04-06 07:04:00,
2013-04-06 03:34:00,36.0,34.0,-100.00,South,176,0.0,3.0,92,0.00,,,0.00,0.000000,,2013-04-06 07:34:00,
2013-04-06 03:45:00,36.0,34.0,-100.00,South,176,0.0,3.0,92,0.00,,,0.00,0.000000,,2013-04-06 07:45:00,
2013-04-06 03:53:00,36.0,34.0,-100.00,South,176,0.0,3.0,92,0.00,,,0.00,0.000000,,2013-04-06 07:53:00,
2013-04-06 04:02:00,36.0,34.0,-100.00,South,176,0.0,3.0,92,0.00,,,0.00,0.000000,,2013-04-06 08:02:00,
2013-04-06 04:32:00,36.0,35.0,-100.00,WNW,293,0.0,2.0,95,0.00,,,0.00,0.000000,,2013-04-06 08:32:00,
2013-04-06 04:43:00,36.0,35.0,-100.00,WNW,293,0.0,2.0,95,0.00,,,0.00,0.000000,,2013-04-06 08:43:00,
2013-04-06 04:52:00,36.0,35.0,-100.00,WNW,293,0.0,2.0,95,0.00,,,0.00,0.000000,,2013-04-06 08:52:00,
2013-04-06 05:02:00,36.0,35.0,-100.00,WNW,293,0.0,2.0,95,0.00,,,0.00,0.000000,,2013-04-06 09:02:00,
2013-04-06 05:33:00,35.0,34.0,-100.00,SSW,199,0.0,0.0,95,0.00,,,-99.99,0.000000,,2013-04-06 09:33:00,
2013-04-06 05:43:00,35.0,34.0,-100.00,SSW,199,0.0,0.0,95,0.00,,,-99.99,0.000000,,2013-04-06 09:43:00,
2013-04-06 05:53:00,35.0,34.0,-100.00,SSW,199,0.0,0.0,95,0.00,,,-99.99,0.000000,,2013-04-06 09:53:00,
2013-04-06 06:03:00,35.0,34.0,-100.00,SSW,199,0.0,0.0,95,0.00,,,-99.99,0.000000,,2013-04-06 10:03:00,
2013-04-06 06:34:00,33.0,32.0,-100.00,South,183,0.0,0.0,95,0.00,,,0.00,0.000000,,2013-04-06 10:34:00,
2013-04-06 06:43:00,33.0,32.0,-100.00,South,183,0.0,0.0,95,0.00,,,0.00,0.000000,,2013-04-06 10:43:00,
2013-04-06 06:53:00,33.0,32.0,-100.00,South,183,0.0,0.0,95,0.00,,,0.00,0.000000,,2013-04-06 10:53:00,
2013-04-06 07:03:00,33.0,32.0,-100.00,South,183,0.0,0.0,95,0.00,,,0.00,0.000000,,2013-04-06 11:03:00,
2013-04-06 07:33:00,33.0,32.0,-100.00,SSW,208,0.0,0.0,96,0.00,,,0.00,0.000000,,2013-04-06 11:33:00,
2013-04-06 07:43:00,33.0,32.0,-100.00,SSW,208,0.0,0.0,96,0.00,,,0.00,0.000000,,2013-04-06 11:43:00,
2013-04-06 07:53:00,33.0,32.0,-100.00,SSW,208,0.0,0.0,96,0.00,,,0.00,0.000000,,2013-04-06 11:53:00,
2013-04-06 08:02:00,33.0,32.0,-100.00,SSW,208,0.0,0.0,96,0.00,,,0.00,0.000000,,2013-04-06 12:02:00,
2013-04-06 08:33:00,34.0,33.0,-100.00,NW,310,0.0,0.0,96,0.00,,,0.00,25.000000,,2013-04-06 12:33:00,
2013-04-06 08:44:00,34.0,33.0,-100.00,NW,310,0.0,0.0,96,0.00,,,0.00,25.000000,,2013-04-06 12:44:00,
2013-04-06 08:53:00,34.0,33.0,-100.00,NW,310,0.0,0.0,96,0.00,,,0.00,25.000000,,2013-04-06 12:53:00,
2013-04-06 09:03:00,34.0,33.0,-100.00,NW,310,0.0,0.0,96,0.00,,,0.00,25.000000,,2013-04-06 13:03:00,
2013-04-06 09:33:00,43.0,39.0,-100.00,SSW,195,0.0,2.0,87,0.00,,,0.00,117.000000,,2013-04-06 13:33:00,
2013-04-06 09:43:00,43.0,39.0,-100.00,SSW,195,0.0,2.0,87,0.00,,,0.00,117.000000,,2013-04-06 13:43:00,
2013-04-06 09:54:00,43.0,39.0,-100.00,SSW,195,0.0,2.0,87,0.00,,,0.00,117.000000,,2013-04-06 13:54:00,
2013-04-06 10:05:00,43.0,39.0,-100.00,SSW,195,0.0,2.0,87,0.00,,,0.00,117.000000,,2013-04-06 14:05:00,
2013-04-06 10:33:00,54.0,42.0,-100.00,NNW,344,0.0,4.0,64,0.00,,,0.00,290.000000,,2013-04-06 14:33:00,
2013-04-06 10:43:00,54.0,42.0,-100.00,NNW,344,0.0,4.0,64,0.00,,,0.00,290.000000,,2013-04-06 14:43:00,
2013-04-06 10:53:00,54.0,42.0,-100.00,NNW,344,0.0,4.0,64,0.00,,,0.00,290.000000,,2013-04-06 14:53:00,
2013-04-06 11:02:00,54.0,42.0,-100.00,NNW,344,0.0,4.0,64,0.00,,,0.00,290.000000,,2013-04-06 15:02:00,
2013-04-06 11:33:00,62.0,42.0,-100.00,WNW,301,2.0,4.0,48,0.00,,,0.00,536.000000,,2013-04-06 15:33:00,
2013-04-06 11:43:00,62.0,42.0,-100.00,WNW,301,2.0,4.0,48,0.00,,,0.00,536.000000,,2013-04-06 15:43:00,
2013-04-06 11:54:00,62.0,42.0,-100.00,WNW,301,2.0,4.0,48,0.00,,,0.00,536.000000,,2013-04-06 15:54:00,
2013-04-06 12:05:00,62.0,42.0,-100.00,WNW,301,2.0,4.0,48,0.00,,,0.00,536.000000,,2013-04-06 16:05:00,
2013-04-06 12:33:00,66.0,40.0,-100.00,WSW,246,4.0,9.0,39,0.00,,,0.00,695.000000,,2013-04-06 16:33:00,
2013-04-06 12:43:00,66.0,40.0,-100.00,WSW,246,4.0,9.0,39,0.00,,,0.00,695.000000,,2013-04-06 16:43:00,
2013-04-06 12:53:00,66.0,40.0,-100.00,WSW,246,4.0,9.0,39,0.00,,,0.00,695.000000,,2013-04-06 16:53:00,
2013-04-06 13:03:00,66.0,40.0,-100.00,WSW,246,4.0,9.0,39,0.00,,,0.00,695.000000,,2013-04-06 17:03:00,
2013-04-06 13:33:00,68.0,35.0,-100.00,SW,225,5.0,17.0,29,0.00,,,0.00,806.000000,,2013-04-06 17:33:00,
2013-04-06 13:43:00,68.0,35.0,-100.00,SW,225,5.0,17.0,29,0.00,,,0.00,806.000000,,2013-04-06 17:43:00,
2013-04-06 13:53:00,68.0,35.0,-100.00,SW,225,5.0,17.0,29,0.00,,,0.00,806.000000,,2013-04-06 17:53:00,
2013-04-06 14:03:00,68.0,35.0,-100.00,SW,225,5.0,17.0,29,0.00,,,0.00,806.000000,,2013-04-06 18:03:00,
2013-04-06 14:33:00,70.0,37.0,-100.00,SSW,204,9.0,20.0,30,0.00,,,0.00,821.000000,,2013-04-06 18:33:00,
2013-04-06 14:43:00,70.0,37.0,-100.00,SSW,204,9.0,20.0,30,0.00,,,0.00,821.000000,,2013-04-06 18:43:00,
2013-04-06 14:52:00,70.0,37.0,-100.00,SSW,204,9.0,20.0,30,0.00,,,0.00,821.000000,,2013-04-06 18:52:00,
2013-04-06 15:03:00,70.0,37.0,-100.00,SSW,204,9.0,20.0,30,0.00,,,0.00,821.000000,,2013-04-06 19:03:00,
2013-04-06 15:33:00,71.0,35.0,-100.00,SW,221,8.0,18.0,27,0.00,,,0.00,747.000000,,2013-04-06 19:33:00,
2013-04-06 15:42:00,71.0,35.0,-100.00,SW,221,8.0,18.0,27,0.00,,,0.00,747.000000,,2013-04-06 19:42:00,
2013-04-06 15:54:00,71.0,35.0,-100.00,SW,221,8.0,18.0,27,0.00,,,0.00,747.000000,,2013-04-06 19:54:00,
2013-04-06 16:03:00,71.0,35.0,-100.00,SW,221,8.0,18.0,27,0.00,,,0.00,747.000000,,2013-04-06 20:03:00,
2013-04-06 16:32:00,71.0,33.0,-100.00,SSW,206,10.0,16.0,25,0.00,,,0.00,612.000000,,2013-04-06 20:32:00,
2013-04-06 16:42:00,71.0,33.0,-100.00,SSW,206,10.0,16.0,25,0.00,,,0.00,612.000000,,2013-04-06 20:42:00,
2013-04-06 16:53:00,71.0,33.0,-100.00,SSW,206,10.0,16.0,25,0.00,,,0.00,612.000000,,2013-04-06 20:53:00,
2013-04-06 17:02:00,71.0,33.0,-100.00,SSW,206,10.0,16.0,25,0.00,,,0.00,612.000000,,2013-04-06 21:02:00,
2013-04-06 17:33:00,73.0,35.0,-100.00,SW,224,10.0,15.0,25,0.00,,,0.00,503.000000,,2013-04-06 21:33:00,
2013-04-06 17:43:00,73.0,35.0,-100.00,SW,224,10.0,15.0,25,0.00,,,0.00,503.000000,,2013-04-06 21:43:00,
2013-04-06 17:53:00,73.0,35.0,-100.00,SW,224,10.0,15.0,25,0.00,,,0.00,503.000000,,2013-04-06 21:53:00,
2013-04-06 18:03:00,73.0,35.0,-100.00,SW,224,10.0,15.0,25,0.00,,,0.00,503.000000,,2013-04-06 22:03:00,
2013-04-06 18:35:00,71.0,36.0,-100.00,SW,216,12.0,20.0,28,0.00,,,0.00,398.000000,,2013-04-06 22:35:00,
2013-04-06 18:44:00,71.0,36.0,-100.00,SW,216,12.0,20.0,28,0.00,,,0.00,398.000000,,2013-04-06 22:44:00,
2013-04-06 18:55:00,71.0,36.0,-100.00,SW,216,12.0,20.0,28,0.00,,,0.00,398.000000,,2013-04-06 22:55:00,
2013-04-06 19:03:00,71.0,36.0,-100.00,SW,216,12.0,20.0,28,0.00,,,0.00,398.000000,,2013-04-06 23:03:00,
2013-04-06 19:34:00,69.0,36.0,-100.00,SSW,204,10.0,19.0,30,0.00,,,0.00,180.000000,,2013-04-06 23:34:00,
2013-04-06 19:43:00,69.0,36.0,-100.00,SSW,204,10.0,19.0,30,0.00,,,0.00,180.000000,,2013-04-06 23:43:00,
2013-04-06 19:53:00,69.0,36.0,-100.00,SSW,204,10.0,19.0,30,0.00,,,0.00,180.000000,,2013-04-06 23:53:00,
2013-04-06 20:02:00,69.0,36.0,-100.00,SSW,204,10.0,19.0,30,0.00,,,0.00,180.000000,,2013-04-07 00:02:00,
2013-04-06 20:33:00,67.0,35.0,-100.00,SSW,200,8.0,16.0,31,0.00,,,0.00,26.000000,,2013-04-07 00:33:00,
2013-04-06 20:44:00,67.0,35.0,-100.00,SSW,200,8.0,16.0,31,0.00,,,0.00,26.000000,,2013-04-07 00:44:00,
2013-04-06 20:53:00,67.0,35.0,-100.00,SSW,200,8.0,16.0,31,0.00,,,0.00,26.000000,,2013-04-07 00:53:00,
2013-04-06 21:02:00,67.0,35.0,-100.00,SSW,200,8.0,16.0,31,0.00,,,0.00,26.000000,,2013-04-07 01:02:00,
2013-04-06 21:33:00,66.0,35.0,-100.00,SSW,195,7.0,13.0,32,0.00,,,0.00,1.000000,,2013-04-07 01:33:00,
2013-04-06 21:43:00,66.0,35.0,-100.00,SSW,195,7.0,13.0,32,0.00,,,0.00,1.000000,,2013-04-07 01:43:00,
2013-04-06 21:53:00,66.0,35.0,-100.00,SSW,195,7.0,13.0,32,0.00,,,0.00,1.000000,,2013-04-07 01:53:00,
2013-04-06 22:03:00,66.0,35.0,-100.00,SSW,195,7.0,13.0,32,0.00,,,0.00,1.000000,,2013-04-07 02:03:00,
2013-04-06 22:33:00,64.0,36.0,-100.00,SSW,195,5.0,12.0,35,0.00,,,0.00,0.000000,,2013-04-07 02:33:00,
2013-04-06 22:43:00,64.0,36.0,-100.00,SSW,195,5.0,12.0,35,0.00,,,0.00,0.000000,,2013-04-07 02:43:00,
2013-04-06 22:52:00,64.0,36.0,-100.00,SSW,195,5.0,12.0,35,0.00,,,0.00,0.000000,,2013-04-07 02:52:00,
2013-04-06 23:02:00,64.0,36.0,-100.00,SSW,195,5.0,12.0,35,0.00,,,0.00,0.000000,,2013-04-07 03:02:00,
2013-04-06 23:35:00,61.0,36.0,-100.00,South,181,3.0,10.0,40,0.00,,,0.00,0.000000,,2013-04-07 03:35:00,
2013-04-06 23:44:00,61.0,36.0,-100.00,South,181,3.0,10.0,40,0.00,,,0.00,0.000000,,2013-04-07 03:44:00,
2013-04-06 23:55:00,61.0,36.0,-100.00,South,181,3.0,10.0,40,0.00,,,0.00,0.000000,,2013-04-07 03:55:00,